GW0718 Weather Reports


time (UTC)temp
C
wind
direction
speed
KPH
gust
KPH
rain 1hr
cm
rain 24hr
cm
rain mn
cm
humidity
%
barometer
mb
20260906225838 15 283 14.5 24.1 0.00 0.05 0.05 89 1016.2
20260906225333 15 341 14.5 24.1 0.00 0.05 0.05 88 1016.1
20260906224829 15 330 8.0 24.1 0.00 0.05 0.05 88 1016.1
20260906224326 15 291 9.7 25.7 0.00 0.05 0.05 88 1016.0
20260906223822 15 313 9.7 19.3 0.00 0.05 0.05 88 1016.1
20260906223318 15 334 6.4 20.9 0.00 0.05 0.05 89 1016.0
20260906222815 15 326 14.5 22.5 0.00 0.05 0.05 89 1016.1
20260906222314 15 326 12.9 20.9 0.00 0.05 0.05 89 1016.1
20260906221812 15 321 14.5 22.5 0.00 0.05 0.05 89 1016.0
20260906221307 15 307 12.9 19.3 0.00 0.05 0.05 89 1016.0
20260906220803 15 349 14.5 17.7 0.00 0.05 0.05 88 1015.8
20260906220257 15 337 14.5 19.3 0.00 0.05 0.05 89 1016.2
20260906215757 15 342 11.3 19.3 0.00 0.05 0.05 90 1016.2
20260906215257 15 307 11.3 19.3 0.00 0.05 0.05 89 1016.2
20260906214755 15 320 14.5 20.9 0.00 0.05 0.05 90 1016.3
20260906214250 15 326 12.9 20.9 0.00 0.05 0.05 89 1016.0
20260906213749 15 339 11.3 20.9 0.00 0.05 0.05 89 1016.1
20260906213249 15 334 20.9 22.5 0.00 0.05 0.05 90 1016.2
20260906212746 15 340 17.7 20.9 0.00 0.05 0.05 90 1016.2
20260906212242 15 319 14.5 19.3 0.00 0.05 0.05 90 1016.3
20260906211741 15 0 16.1 24.1 0.00 0.05 0.05 90 1016.1
20260906211237 15 344 16.1 19.3 0.00 0.05 0.05 90 1016.3
20260906210732 14 343 17.7 19.3 0.00 0.05 0.05 91 1016.3
20260906210227 14 351 16.1 27.4 0.00 0.05 0.05 90 1016.2
20260906205722 15 332 12.9 25.7 0.00 0.05 0.05 90 1016.2
20260906205219 15 330 14.5 27.4 0.00 0.05 0.05 90 1016.1
20260906204718 15 336 12.9 25.7 0.00 0.05 0.05 90 1016.1
20260906204218 14 16 11.3 27.4 0.00 0.05 0.05 90 1016.2
20260906203718 14 334 9.7 25.7 0.00 0.05 0.05 90 1016.4
20260906203213 15 358 14.5 24.1 0.00 0.05 0.05 90 1016.2
20260906202710 15 319 17.7 25.7 0.00 0.05 0.05 89 1016.6
20260906202208 15 335 12.9 24.1 0.00 0.05 0.05 89 1016.3
20260906201704 15 335 12.9 19.3 0.00 0.05 0.05 88 1016.6
20260906201203 15 2 12.9 24.1 0.00 0.05 0.05 89 1016.4
20260906200659 14 344 17.7 25.7 0.00 0.05 0.05 89 1016.4
20260906200155 15 329 16.1 27.4 0.00 0.05 0.05 89 1016.6
20260906195650 15 333 20.9 24.1 0.00 0.05 0.05 88 1016.6
20260906195147 14 331 14.5 29.0 0.00 0.05 0.05 88 1016.7
20260906194643 15 348 16.1 30.6 0.00 0.05 0.05 87 1016.4
20260906194138 15 345 14.5 22.5 0.00 0.05 0.05 87 1016.4
20260906193632 15 339 19.3 22.5 0.00 0.05 0.05 86 1016.8
20260906193128 15 338 17.7 27.4 0.00 0.05 0.05 87 1016.8
20260906192623 15 15 16.1 24.1 0.00 0.05 0.05 86 1016.6
20260906192122 15 17 24.1 32.2 0.00 0.05 0.05 86 1016.6
20260906191618 15 347 19.3 19.3 0.00 0.05 0.05 86 1016.4
20260906191116 15 329 17.7 20.9 0.00 0.05 0.05 85 1016.7
20260906190611 15 328 17.7 22.5 0.00 0.05 0.05 85 1016.7
20260906190106 15 349 11.3 19.3 0.00 0.05 0.05 86 1016.4
20260906185604 15 20 11.3 27.4 0.00 0.05 0.05 86 1016.6
20260906185104 15 356 17.7 22.5 0.00 0.05 0.05 85 1016.8
20260906184558 15 351 8.0 27.4 0.00 0.05 0.05 86 1016.6
20260906184054 15 8 12.9 19.3 0.00 0.05 0.05 87 1017.0
20260906183550 14 356 14.5 24.1 0.00 0.05 0.05 87 1016.8
20260906183046 14 9 12.9 19.3 0.00 0.05 0.05 88 1017.0
20260906182540 14 5 16.1 20.9 0.00 0.05 0.05 89 1017.1
20260906182037 14 339 17.7 20.9 0.00 0.05 0.05 89 1017.3
20260906181532 13 339 16.1 19.3 0.00 0.05 0.05 91 1017.3
20260906181027 13 348 9.7 19.3 0.00 0.05 0.05 93 1017.4
20260906180522 13 338 12.9 19.3 0.00 0.05 0.05 92 1017.7
20260906180021 13 5 11.3 17.7 0.00 0.05 0.05 93 1017.3
20260906175520 13 2 11.3 16.1 0.00 0.05 0.05 93 1017.7
20260906175014 12 359 11.3 17.7 0.00 0.05 0.05 94 1018.1
20260906174508 12 320 16.1 20.9 0.00 0.05 0.05 93 1018.3
20260906174003 12 295 9.7 20.9 0.00 0.05 0.05 94 1018.3
20260906173458 12 328 9.7 20.9 0.00 0.05 0.05 94 1018.4
20260906172957 12 315 12.9 20.9 0.00 0.05 0.05 94 1018.4
20260906172453 12 308 11.3 22.5 0.00 0.05 0.05 95 1018.5
20260906171949 12 310 24.1 25.7 0.00 0.05 0.05 95 1018.4
20260906171443 12 313 9.7 22.5 0.00 0.05 0.05 96 1018.8
20260906170939 12 295 9.7 19.3 0.00 0.05 0.05 96 1018.7
20260906170435 12 301 9.7 22.5 0.00 0.05 0.05 97 1019.0
20260906165932 12 320 14.5 14.5 0.00 0.05 0.05 97 1018.7
20260906165431 12 317 12.9 20.9 0.00 0.05 0.05 97 1018.3
20260906164926 12 325 12.9 17.7 0.00 0.05 0.05 97 1018.7
20260906164424 12 299 8.0 22.5 0.00 0.05 0.05 97 1018.5
20260906163920 12 332 11.3 22.5 0.00 0.05 0.05 97 1018.3
20260906163411 12 342 14.5 29.0 0.00 0.05 0.05 97 1018.1
20260906162909 12 327 14.5 17.7 0.05 0.05 0.05 97 1018.4
20260906162408 11 328 12.9 20.9 0.05 0.05 0.05 97 1018.5
20260906161903 11 337 12.9 22.5 0.00 0.05 0.05 97 1018.2
20260906161401 11 328 12.9 20.9 0.13 0.05 0.05 97 1018.5
20260906160900 11 326 16.1 20.9 0.23 0.05 0.05 97 1018.5
20260906160354 11 328 17.7 22.5 0.18 0.03 0.03 96 1018.8
20260906155853 11 313 14.5 20.9 0.05 0.00 0.00 96 1018.9
20260906155346 12 293 16.1 22.5 0.00 0.00 0.00 95 1018.8
20260906154838 12 306 24.1 30.6 0.00 0.00 0.00 95 1018.8
20260906154332 12 302 22.5 33.8 0.00 0.00 0.00 95 1018.9
20260906153830 12 298 17.7 22.5 0.00 0.00 0.00 94 1019.0
20260906153324 12 336 12.9 25.7 0.00 0.00 0.00 93 1019.0
20260906152820 12 280 17.7 30.6 0.00 0.00 0.00 92 1018.9
20260906152315 12 287 22.5 37.0 0.00 0.00 0.00 92 1019.2
20260906151814 12 319 14.5 29.0 0.00 0.00 0.00 92 1019.0
20260906151310 12 266 20.9 37.0 0.00 0.00 0.00 91 1019.2
20260906150805 12 299 19.3 35.4 0.00 0.00 0.00 93 1019.0
20260906150301 12 302 29.0 40.2 0.00 0.00 0.00 94 1019.0
20260906145759 13 304 22.5 32.2 0.00 0.00 0.00 94 1018.7
20260906145258 13 326 14.5 25.7 0.00 0.00 0.00 94 1019.0
20260906144753 13 330 16.1 22.5 0.00 0.00 0.00 95 1019.0
20260906144248 13 344 11.3 17.7 0.00 0.00 0.00 94 1018.9
20260906143748 12 327 4.8 9.7 0.00 0.00 0.00 95 1018.9
20260906143245 12 333 9.7 9.7 0.00 0.00 0.00 95 1018.7
20260906142744 12 345 3.2 11.3 0.00 0.00 0.00 95 1018.7
20260906142240 12 331 6.4 11.3 0.00 0.00 0.00 95 1018.3
20260906141738 13 359 8.0 14.5 0.00 0.00 0.00 95 1018.5
20260906141233 13 7 3.2 17.7 0.00 0.00 0.00 95 1018.8
20260906140733 13 303 8.0 19.3 0.00 0.00 0.00 94 1018.8
20260906140228 13 313 9.7 17.7 0.00 0.00 0.00 95 1019.1
20260906135724 13 303 11.3 16.1 0.00 0.00 0.00 95 1018.7
20260906135221 13 306 11.3 14.5 0.00 0.00 0.00 95 1018.9
20260906134716 12 299 11.3 12.9 0.00 0.00 0.00 96 1018.8
20260906134211 12 283 6.4 11.3 0.00 0.00 0.00 96 1018.5
20260906133707 12 330 6.4 12.9 0.00 0.00 0.00 96 1018.5
20260906133202 12 317 11.3 16.1 0.00 0.00 0.00 96 1018.7
20260906132657 12 310 9.7 17.7 0.00 0.00 0.00 96 1018.7
20260906132152 12 335 12.9 16.1 0.00 0.00 0.00 96 1018.5
20260906131647 12 332 16.1 20.9 0.00 0.00 0.00 96 1018.7
20260906131137 12 346 9.7 22.5 0.00 0.00 0.00 96 1018.9
20260906130632 12 22 6.4 19.3 0.00 0.00 0.00 96 1018.8
20260906130127 12 305 16.1 20.9 0.00 0.00 0.00 96 1019.0
20260906125625 12 323 9.7 16.1 0.00 0.00 0.00 96 1018.8
20260906125124 12 333 9.7 11.3 0.00 0.00 0.00 96 1018.8
20260906124620 12 344 11.3 14.5 0.00 0.00 0.00 96 1018.5
20260906124115 12 350 9.7 14.5 0.00 0.00 0.00 96 1018.8
20260906123614 12 53 3.2 12.9 0.00 0.00 0.00 95 1018.8
20260906123109 12 4 6.4 14.5 0.00 0.00 0.00 95 1019.0
20260906122608 12 341 9.7 14.5 0.00 0.00 0.00 95 1019.3
20260906122104 12 299 9.7 14.5 0.00 0.00 0.00 96 1019.1
20260906121600 12 352 11.3 14.5 0.00 0.00 0.00 96 1019.2
20260906121056 12 316 4.8 14.5 0.00 0.00 0.00 97 1019.2
20260906120551 12 1 3.2 12.9 0.00 0.00 0.00 97 1019.3
20260906120049 12 330 9.7 14.5 0.00 0.00 0.00 97 1019.2
20260906115548 12 287 6.4 9.7 0.00 0.00 0.00 97 1019.7
20260906115044 12 298 6.4 9.7 0.00 0.00 0.00 97 1019.4
20260906114538 12 308 9.7 14.5 0.00 0.00 0.00 97 1019.3
20260906114034 12 359 8.0 12.9 0.00 0.00 0.00 97 1019.2
20260906113532 12 328 8.0 16.1 0.00 0.00 0.00 97 1019.3
20260906113028 12 329 6.4 14.5 0.00 0.00 0.00 97 1019.3
20260906112523 12 319 4.8 14.5 0.00 0.00 0.00 97 1019.2
20260906112019 12 324 11.3 12.9 0.00 0.00 0.00 97 1019.2
20260906111519 12 347 8.0 9.7 0.00 0.00 0.00 96 1019.0
20260906111014 12 340 9.7 14.5 0.00 0.00 0.00 96 1019.1
20260906110509 12 342 11.3 19.3 0.00 0.00 0.00 96 1018.8
20260906110007 12 333 12.9 19.3 0.00 0.00 0.00 96 1019.0
20260906105504 12 323 16.1 20.9 0.00 0.00 0.00 97 1019.2
20260906104959 12 308 9.7 17.7 0.00 0.00 0.00 97 1019.2
20260906104457 12 314 14.5 19.3 0.00 0.00 0.00 97 1019.2
20260906103957 12 313 16.1 24.1 0.00 0.00 0.00 97 1019.3
20260906103455 12 314 9.7 20.9 0.00 0.00 0.00 97 1019.4
20260906102950 12 328 16.1 22.5 0.00 0.00 0.00 96 1019.3
20260906102450 12 342 16.1 27.4 0.00 0.00 0.00 95 1019.3
20260906101944 12 2 11.3 25.7 0.00 0.00 0.00 95 1019.2
20260906101440 12 308 16.1 22.5 0.00 0.00 0.00 97 1019.2
20260906100935 12 340 17.7 24.1 0.00 0.00 0.00 97 1019.2
20260906100430 12 19 16.1 22.5 0.00 0.00 0.00 98 1019.3
20260906095930 11 350 11.3 19.3 0.00 0.00 0.00 98 1019.4
20260906095426 11 16 11.3 19.3 0.00 0.00 0.00 97 1019.5
20260906094926 11 353 11.3 20.9 0.00 0.00 0.00 97 1019.2
20260906094420 12 331 17.7 22.5 0.00 0.00 0.00 97 1019.3
20260906093916 12 327 14.5 22.5 0.00 0.00 0.00 97 1019.3
20260906093413 11 328 11.3 24.1 0.00 0.00 0.00 98 1020.2
20260906092907 11 319 14.5 19.3 0.00 0.00 0.00 98 1019.9
20260906092406 11 300 9.7 17.7 0.00 0.00 0.00 98 1020.2
20260906091901 11 302 9.7 20.9 0.00 0.00 0.00 98 1020.0
20260906091357 11 301 8.0 20.9 0.00 0.00 0.00 98 1020.2
20260906090854 11 319 14.5 17.7 0.00 0.00 0.00 98 1020.1
20260906090353 11 318 20.9 24.1 0.00 0.00 0.00 98 1020.4
20260906085848 11 333 12.9 17.7 0.00 0.00 0.00 98 1020.5
20260906085341 11 328 11.3 20.9 0.00 0.00 0.00 98 1020.2
20260906084836 11 318 19.3 24.1 0.00 0.00 0.00 98 1020.3
20260906084330 11 333 19.3 22.5 0.00 0.00 0.00 98 1020.3
20260906083824 11 338 16.1 19.3 0.00 0.00 0.00 98 1020.4
20260906083320 11 356 14.5 25.7 0.00 0.00 0.00 98 1020.4
20260906082815 11 333 16.1 25.7 0.00 0.00 0.00 97 1020.5
20260906082310 11 345 9.7 20.9 0.00 0.00 0.00 97 1020.4
20260906081806 11 332 20.9 22.5 0.00 0.00 0.00 97 1020.3
20260906081302 11 344 9.7 19.3 0.00 0.00 0.00 97 1020.8
20260906080758 11 328 12.9 20.9 0.00 0.00 0.00 97 1020.4
20260906080253 11 330 14.5 19.3 0.00 0.00 0.00 97 1020.5
20260906075747 11 318 14.5 24.1 0.00 0.00 0.00 96 1020.3
20260906075242 12 319 12.9 22.5 0.00 0.00 0.00 96 1020.3
20260906074737 12 320 25.7 25.7 0.00 0.00 0.00 96 1020.4
20260906074236 12 316 16.1 27.4 0.00 0.00 0.00 95 1020.3
20260906073736 12 299 11.3 25.7 0.00 0.00 0.00 95 1020.5
20260906073231 12 317 17.7 30.6 0.00 0.00 0.00 95 1020.6
20260906072727 12 307 16.1 27.4 0.00 0.00 0.00 95 1020.6
20260906072222 12 299 11.3 20.9 0.00 0.00 0.00 95 1020.8
20260906071718 12 318 16.1 22.5 0.00 0.00 0.00 95 1020.8
20260906071218 12 334 12.9 20.9 0.00 0.00 0.00 95 1021.0
20260906070714 12 347 9.7 22.5 0.00 0.00 0.00 95 1021.1
20260906070210 12 310 12.9 19.3 0.00 0.00 0.00 95 1021.2
20260906065704 12 306 9.7 24.1 0.00 0.00 0.00 94 1021.1
20260906065159 12 320 9.7 27.4 0.00 0.00 0.00 94 1021.1
20260906064655 12 287 14.5 30.6 0.00 0.00 0.00 94 1021.3
20260906064150 12 312 9.7 25.7 0.00 0.00 0.00 93 1021.5
20260906063645 12 316 16.1 25.7 0.00 0.00 0.00 92 1021.2
20260906063141 12 328 25.7 27.4 0.00 0.00 0.00 92 1021.4
20260906062637 12 293 14.5 24.1 0.00 0.00 0.00 93 1021.5
20260906062135 12 285 22.5 29.0 0.00 0.00 0.00 94 1021.3
20260906061631 12 278 9.7 24.1 0.00 0.00 0.00 94 1021.1
20260906061131 12 323 11.3 17.7 0.00 0.00 0.00 94 1020.9
20260906060627 12 312 20.9 27.4 0.00 0.00 0.00 94 1021.0
20260906060120 12 307 6.4 22.5 0.00 0.00 0.00 94 1020.9
20260906055615 12 308 12.9 17.7 0.00 0.18 0.18 95 1021.4
20260906055110 12 276 6.4 16.1 0.00 0.18 0.18 94 1021.1
20260906054610 12 327 11.3 16.1 0.00 0.18 0.18 93 1021.0
20260906054100 12 351 14.5 22.5 0.05 0.18 0.18 93 1021.0
20260906053556 12 321 17.7 20.9 0.13 0.18 0.18 93 1021.0
20260906053052 12 315 16.1 24.1 0.05 0.18 0.18 93 1020.9
20260906052547 12 313 19.3 22.5 0.00 0.15 0.15 91 1021.0
20260906052044 12 337 22.5 27.4 0.00 0.15 0.15 90 1021.0
20260906051539 12 281 14.5 20.9 0.00 0.15 0.15 90 1022.3
20260906051034 12 274 16.1 17.7 0.00 0.15 0.15 91 1022.0
20260906050529 12 290 11.3 22.5 0.00 0.15 0.15 90 1021.3
20260906050024 12 288 12.9 16.1 0.00 0.15 0.15 91 1021.0
20260906045522 12 311 9.7 16.1 0.00 0.15 0.15 91 1020.8
20260906045019 12 325 16.1 22.5 0.00 0.15 0.15 90 1020.5
20260906044514 12 314 12.9 20.9 0.00 0.15 0.15 91 1020.5
20260906044010 12 330 11.3 20.9 0.00 0.15 0.15 92 1020.4
20260906043505 12 308 12.9 20.9 0.00 0.15 0.15 92 1020.6
20260906043001 12 291 6.4 20.9 0.00 0.15 0.15 92 1020.8
20260906042500 12 310 12.9 20.9 0.05 0.15 0.15 92 1020.9
20260906041959 12 337 8.0 24.1 0.05 0.15 0.15 91 1020.4
20260906041455 12 326 11.3 20.9 0.13 0.15 0.15 91 1020.3
20260906040955 12 344 17.7 29.0 0.30 0.15 0.15 90 1020.2
20260906040450 12 341 32.2 43.5 0.30 0.13 0.13 89 1020.2
20260906035940 13 342 20.9 22.5 0.05 0.08 0.08 86 1021.8
20260906035435 14 288 12.9 17.7 0.00 0.08 0.08 78 1022.4
20260906034930 14 273 16.1 20.9 0.00 0.08 0.08 79 1022.2
20260906034425 13 286 9.7 24.1 0.00 0.08 0.08 79 1021.9
20260906033920 13 272 11.3 20.9 0.00 0.08 0.08 80 1021.5
20260906033415 13 312 17.7 25.7 0.00 0.08 0.08 80 1020.5
20260906032911 13 318 17.7 24.1 0.00 0.08 0.08 81 1020.3
20260906032407 13 324 17.7 22.5 0.00 0.08 0.08 81 1020.6
20260906031906 13 329 11.3 22.5 0.00 0.08 0.08 80 1020.6
20260906031402 13 333 11.3 20.9 0.00 0.08 0.08 80 1020.5
20260906030852 13 317 14.5 27.4 0.00 0.08 0.08 80 1020.1
20260906030346 13 316 14.5 20.9 0.00 0.08 0.08 81 1020.1
20260906025841 13 327 8.0 19.3 0.00 0.08 0.08 81 1020.1
20260906025335 12 326 12.9 16.1 0.00 0.08 0.08 81 1020.1
20260906024833 12 326 14.5 19.3 0.00 0.08 0.08 81 1019.8
20260906024333 13 311 17.7 20.9 0.00 0.08 0.08 80 1019.9
20260906023829 13 317 9.7 20.9 0.00 0.08 0.08 80 1019.9
20260906023324 13 345 11.3 20.9 0.00 0.08 0.08 79 1019.7
20260906022820 13 337 19.3 22.5 0.00 0.08 0.08 78 1019.7
20260906022314 13 348 17.7 17.7 0.00 0.08 0.08 77 1019.7
20260906021810 13 350 14.5 19.3 0.00 0.08 0.08 76 1020.0
20260906021309 14 350 11.3 20.9 0.00 0.08 0.08 75 1019.5
20260906020804 14 321 12.9 20.9 0.00 0.08 0.08 74 1019.7
20260906020258 15 319 12.9 22.5 0.00 0.08 0.08 73 1020.0
20260906015753 15 340 12.9 24.1 0.00 0.08 0.08 72 1019.7
20260906015251 15 4 16.1 25.7 0.00 0.08 0.08 72 1019.9
20260906014746 15 9 11.3 25.7 0.00 0.08 0.08 71 1019.4
20260906014242 15 340 19.3 25.7 0.00 0.08 0.08 71 1019.3
20260906013738 15 1 12.9 25.7 0.00 0.08 0.08 71 1019.3
20260906013237 15 339 17.7 29.0 0.00 0.08 0.08 71 1019.5
20260906012733 15 20 12.9 22.5 0.00 0.08 0.08 71 1019.5
20260906012227 16 350 17.7 32.2 0.00 0.08 0.08 70 1019.1
20260906011722 16 3 17.7 27.4 0.00 0.08 0.08 69 1019.0
20260906011217 16 15 22.5 30.6 0.00 0.08 0.08 70 1019.3
20260906010713 16 10 22.5 33.8 0.00 0.08 0.08 69 1019.2
20260906010209 16 3 20.9 33.8 0.00 0.08 0.08 68 1019.4
20260906005708 16 330 22.5 33.8 0.00 0.08 0.08 67 1019.2
20260906005203 16 320 19.3 29.0 0.00 0.08 0.08 67 1019.3
20260906004702 16 352 9.7 27.4 0.00 0.08 0.08 68 1019.5
20260906004156 17 327 19.3 29.0 0.00 0.08 0.08 66 1019.3
20260906003646 17 329 25.7 30.6 0.00 0.08 0.08 65 1019.4
20260906003142 17 319 22.5 29.0 0.00 0.08 0.08 65 1019.2
20260906002642 17 350 27.4 32.2 0.00 0.08 0.08 65 1019.1
20260906002136 17 0 12.9 27.4 0.00 0.08 0.08 63 1019.4
20260906001632 17 330 12.9 29.0 0.00 0.08 0.08 64 1019.4
20260906001131 17 339 8.0 29.0 0.00 0.08 0.08 64 1019.4
20260906000627 17 346 17.7 32.2 0.00 0.08 0.08 64 1019.4
20260906000123 18 335 24.1 30.6 0.00 0.08 0.08 62 1019.4
20260905235621 18 315 17.7 29.0 0.00 0.08 0.08 63 1019.4
20260905235117 18 329 16.1 27.4 0.00 0.08 0.08 62 1019.5
20260905234612 18 348 20.9 33.8 0.00 0.08 0.08 64 1019.4
20260905234108 18 332 14.5 27.4 0.00 0.08 0.08 63 1019.3
20260905233607 18 344 16.1 27.4 0.00 0.08 0.08 62 1019.7
20260905233102 18 353 16.1 32.2 0.00 0.08 0.08 65 1019.3
20260905232557 18 356 17.7 30.6 0.00 0.08 0.08 63 1019.4
20260905232053 18 346 27.4 33.8 0.00 0.08 0.08 61 1019.3
20260905231548 18 335 17.7 27.4 0.00 0.08 0.08 62 1019.3
20260905231044 18 5 27.4 29.0 0.00 0.08 0.08 62 1019.3
20260905230543 18 8 19.3 27.4 0.00 0.08 0.08 61 1019.2
20260905230042 18 349 9.7 30.6 0.00 0.08 0.08 62 1019.1